This is the latest recevied weather packets stored in our database for station/object KO4LCK. If no packets are shown the sender has not sent any weather packets the latest 10 day(s).
| Time | Temp. | Humidity | Pressure | Rain* | Wind** | Luminosity | Snow |
|---|---|---|---|---|---|---|---|
| 1777599613 | 13.33° C | 84% | 1014.5 hPa | 0 mm | - | 0 W/m² | - |
| 1777599309 | 13.33° C | 83% | 1014.4 hPa | 0 mm | - | 0 W/m² | - |
| 1777599006 | 13.89° C | 82% | 1014.1 hPa | 0 mm | - | 0 W/m² | - |
| 1777598703 | 13.89° C | 82% | 1014.3 hPa | 0 mm | - | 0 W/m² | - |
| 1777598398 | 13.89° C | 81% | 1014.1 hPa | 0 mm | - | 0 W/m² | - |
| 1777598097 | 13.89° C | 79% | 1014.4 hPa | 0 mm | - | 0 W/m² | - |
| 1777597797 | 14.44° C | 77% | 1014.2 hPa | 0 mm | - | 0 W/m² | - |
| 1777597491 | 14.44° C | 79% | 1014 hPa | 0 mm | - | 0 W/m² | - |
| 1777597188 | 15° C | 77% | 1014 hPa | 0 mm | - | 0 W/m² | - |
| 1777596883 | 15° C | 76% | 1013.9 hPa | 0 mm | - | 0 W/m² | - |
| 1777596579 | 15° C | 75% | 1013.8 hPa | 0 mm | - | 0 W/m² | - |
| 1777596277 | 15° C | 74% | 1013.8 hPa | 0 mm | - | 0 W/m² | - |
| 1777595974 | 15° C | 74% | 1013.7 hPa | 0 mm | - | 0 W/m² | - |
| 1777595669 | 15° C | 73% | 1013.4 hPa | 0 mm | - | 0 W/m² | - |
| 1777595364 | 15.56° C | 74% | 1013.5 hPa | 0 mm | - | 1 W/m² | - |
| 1777595061 | 15.56° C | 74% | 1013.4 hPa | 0 mm | - | 1 W/m² | - |
| 1777594758 | 15.56° C | 75% | 1013.3 hPa | 0 mm | - | 3 W/m² | - |
| 1777594454 | 15.56° C | 72% | 1013.3 hPa | 0 mm | - | 4 W/m² | - |
| 1777594149 | 16.11° C | 72% | 1013.4 hPa | 0 mm | - | 6 W/m² | - |
| 1777593846 | 16.11° C | 70% | 1013.5 hPa | 0 mm | - | 9 W/m² | - |
| 1777593543 | 16.67° C | 69% | 1013.4 hPa | 0 mm | - | 13 W/m² | - |
| 1777593243 | 16.67° C | 69% | 1013.4 hPa | 0 mm | - | 19 W/m² | - |
| 1777592942 | 17.22° C | 67% | 1013.4 hPa | 0 mm | - | 21 W/m² | - |
| 1777592637 | 17.22° C | 67% | 1013.3 hPa | 0 mm | - | 24 W/m² | - |
| 1777592334 | 17.78° C | 65% | 1013.3 hPa | 0 mm | - | 27 W/m² | - |
* Rain latest hour (hover to see other rain measurements)
** Current wind speed in m/s (hover to see current wind gust speed)